Preview of NWS' New Version of Forecast
This preview is not operational and should not be used for support decisions.

Regional Weather Roundup (RWR)

Issued by National Weather Service (NWS)

                            
000
ASUS43 KBIS 220610
RWRND 

NORTH DAKOTA REGIONAL WEATHER ROUNDUP
NATIONAL WEATHER SERVICE BISMARCK ND
100 AM CDT MON APR 22 2019

NOTE: "FAIR" INDICATES FEW OR NO CLOUDS BELOW 12,000 FEET WITH NO
SIGNIFICANT WEATHER AND/OR OBSTRUCTIONS TO VISIBILITY.


NDZ001>003-009>011-017-220700-
NORTHWEST NORTH DAKOTA
  
CITY           SKY/WX    TMP DP  RH WIND       PRES   REMARKS
WILLISTON      CLEAR     36  27  69 E6        30.22R                  
6HR MIN TEMP:  36; 6HR MAX TEMP:  64;                                

MINOT          CLEAR     43  26  51 NW7       30.17R                  
MINOT AFB      CLEAR     40  26  57 NW10      30.16R                  
$$
 
NDZ018>021-031>035-040>046-220700-
SOUTHWEST NORTH DAKOTA
  
CITY           SKY/WX    TMP DP  RH WIND       PRES   REMARKS
BISMARCK       CLOUDY    41  35  79 CALM      30.16R                  
6HR MIN TEMP:  41; 6HR MAX TEMP:  60;                                

DICKINSON      MOCLDY    40  37  89 NW8       30.17R                  
GARRISON         N/A     39  29  67 N8        30.16R                  
6HR MIN TEMP:  39; 6HR MAX TEMP:  60;                                

HETTINGER ARPT CLOUDY    37  35  92 W5        30.19R                  
$$
 
NDZ004>008-012>016-024-026-027-054-220700-
NORTHEAST NORTH DAKOTA
  
CITY           SKY/WX    TMP DP  RH WIND       PRES   REMARKS
GRAND FORKS    CLOUDY    45  35  68 CALM      30.11R                  
GRND FRKS AFB  MOCLDY    42  37  84 CALM      30.12R                  
DEVILS LAKE    PTCLDY    39  34  82 CALM      30.13S                  
$$
 
NDZ022-023-025-028>030-036>039-047>053-220700-
SOUTHEAST NORTH DAKOTA
  
CITY           SKY/WX    TMP DP  RH WIND       PRES   REMARKS
FARGO          CLOUDY    50  39  66 NE6       30.09R                  
6HR MIN TEMP:  50; 6HR MAX TEMP:  58;                                

JAMESTOWN      CLOUDY    43  37  79 N6        30.11R                  
$$